Starlink 3960

operational
NORAD ID: 52659 Int'l Des: 2022-053 Owner: SPXS Country: US Constellation: starlink
LEOCIRCULAR

About Starlink 3960

Description loading...

Live Position

Loading 3D Globe...

Upcoming Passes

Altitude History

Altitude vs Time

uPlot chart will show altitude changes over time

Two-Line Element Set

1 52659U 22053D 25348.83769724 .00001027 00000-0 82622-4 0 9991
2 52659 53.2161 174.9891 0001338 92.1886 267.9259 15.08832718198411
Epoch: Dec 14, 2025 • Age: 21 hours

Current Status

Altitude 541.6 km
Velocity 7.60 km/s
Sub-Earth Point 34.00°N, 137.91°W
Launch Date May 18, 2022
Age 3.5 years
Type internet

Technical Details

Classification Payload
Mass 297.00 kg
Dry Mass 275.00 kg
Total Mass 297.00 kg
Length 0.20 m
Diameter 2.80 m
Span 9.00 m
Shape Box + pan
Manufacturer SPXS
Bus Type Starlink
Phase Status In Orbit
Owner/State SPXS/US

Large Constellations

Loading constellations...